EW3845 Weather Reports


Display with metric or nautical units.
time (UTC)temp
F
wind
direction
speed
MPH
gust
MPH
rain 1hr
in
rain 24hr
in
rain mn
in
humidity
%
barometer
mb
20260905201521 58 360 0.0 0.0 0.00 0.00 0.00 79 1025.1
20260905200024 59 360 0.0 0.0 0.00 0.00 0.00 77 1025.0
20260905194518 60 360 0.0 0.0 0.00 0.00 0.00 76 1024.8
20260905193019 61 360 0.0 0.0 0.00 0.00 0.00 75 1024.8
20260905191520 62 360 0.0 0.0 0.00 0.00 0.00 73 1024.7
20260905190019 63 360 0.0 0.0 0.00 0.00 0.00 73 1024.6
20260905184519 63 360 0.0 0.0 0.00 0.00 0.00 71 1024.5
20260905183014 64 360 0.0 0.0 0.00 0.00 0.00 70 1024.3
20260905181516 65 360 0.0 0.0 0.00 0.00 0.00 70 1024.1
20260905180009 65 360 0.0 0.0 0.00 0.00 0.00 70 1023.9
20260905174518 66 360 0.0 0.0 0.00 0.00 0.00 69 1023.9
20260905173007 67 360 0.0 0.0 0.00 0.00 0.00 67 1023.7
20260905171505 67 360 0.0 0.0 0.00 0.00 0.00 65 1023.4
20260905170005 68 258 0.0 0.0 0.00 0.02 0.00 64 1023.4
20260905164503 69 360 0.0 0.0 0.00 0.02 0.00 63 1023.2
20260905163001 69 360 0.0 0.0 0.00 0.02 0.00 63 1023.1
20260905161559 69 360 0.0 0.0 0.00 0.02 0.00 62 1022.8
20260905160109 70 238 0.0 0.0 0.00 0.11 0.00 65 1022.8
20260905154630 70 360 0.0 0.0 0.00 0.11 0.00 63 1022.6
20260905153056 71 360 0.0 0.0 0.00 0.11 0.00 62 1022.5
20260905151555 71 294 0.0 0.0 0.00 0.11 0.00 61 1022.3
20260905144551 70 360 0.0 0.0 0.00 0.11 0.00 63 1022.1
20260905143059 69 360 0.0 0.0 0.00 0.11 0.00 64 1022.1
20260905141548 69 360 0.0 0.0 0.00 0.11 0.00 67 1022.0
20260905140048 69 289 0.0 0.0 0.00 0.11 0.00 66 1021.8
20260905134546 70 360 0.0 0.0 0.00 0.11 0.00 67 1021.8
20260905133046 70 360 0.0 0.0 0.00 0.11 0.00 68 1021.8
20260905131545 70 360 0.0 0.0 0.00 0.11 0.00 67 1021.8
20260905130048 70 291 0.0 0.0 0.00 0.11 0.00 67 1021.8
20260905124542 70 360 0.0 0.0 0.00 0.11 0.00 69 1021.7
20260905123042 70 360 0.0 0.0 0.00 0.11 0.00 67 1021.6
20260905121540 70 298 0.0 0.0 0.00 0.11 0.00 69 1021.5
20260905120048 69 304 0.0 0.0 0.00 0.11 0.00 69 1021.4
20260905114537 69 360 0.0 0.0 0.00 0.11 0.00 72 1021.2
20260905113035 68 360 0.0 0.0 0.00 0.11 0.00 72 1021.4
20260905111538 69 297 0.0 0.0 0.00 0.11 0.00 72 1021.2
20260905110033 69 284 0.0 0.0 0.00 0.11 0.00 71 1021.2
20260905104530 69 296 0.0 0.0 0.00 0.11 0.00 73 1021.1
20260905103029 69 360 0.0 0.0 0.00 0.11 0.00 73 1021.1
20260905101526 67 289 0.0 0.0 0.00 0.11 0.00 77 1020.9
20260905100024 67 306 0.0 0.0 0.00 0.11 0.00 78 1020.9
20260905094537 66 287 0.0 0.0 0.00 0.11 0.00 81 1020.7
20260905093020 66 360 0.0 0.0 0.00 0.11 0.00 80 1020.7
20260905091517 66 261 0.0 0.0 0.00 0.11 0.00 82 1020.6
20260905090016 65 302 0.0 0.0 0.00 0.11 0.00 84 1020.3
20260905084510 64 360 0.0 0.0 0.00 0.11 0.00 85 1020.3
20260905083007 63 293 0.0 0.0 0.00 0.11 0.00 87 1020.1
20260905081505 63 296 0.0 0.0 0.00 0.11 0.00 88 1020.0
20260905080005 62 360 0.0 0.0 0.00 0.11 0.00 89 1019.8
20260905074606 62 292 0.0 0.0 0.00 0.11 0.00 90 1019.8
20260905073110 61 286 0.0 0.0 0.00 0.11 0.00 91 1019.6
20260905071557 61 360 0.0 0.0 0.00 0.11 0.00 91 1019.4
20260905070056 60 360 0.0 0.0 0.00 0.11 0.00 92 1019.1
20260905064553 60 360 0.0 0.0 0.00 0.11 0.00 92 1019.0
20260905063051 60 292 0.0 0.0 0.00 0.11 0.00 93 1018.8
20260905061601 60 292 0.0 0.0 0.00 0.11 0.00 93 1018.6
20260905054555 59 289 0.0 0.0 0.00 0.11 0.00 93 1018.3
20260905053045 59 289 0.0 0.0 0.00 0.11 0.00 93 1018.3
20260905051602 59 289 0.0 0.0 0.00 0.11 0.00 93 1018.2
20260905050043 58 289 0.0 0.0 0.00 0.11 0.00 93 1017.9
20260905044543 58 289 0.0 0.0 0.00 0.11 0.00 93 1017.7
20260905043040 59 289 0.0 0.0 0.00 0.11 0.00 93 1017.6
20260905041540 59 289 0.0 0.0 0.00 0.11 0.00 93 1017.4
20260905040036 59 289 0.0 0.0 0.00 0.11 0.00 93 1017.2
20260905034536 59 289 0.0 0.0 0.00 0.11 0.00 93 1017.1
20260905033034 59 289 0.0 0.0 0.00 0.11 0.00 93 1016.9
20260905031540 59 289 0.0 0.0 0.00 0.11 0.00 94 1017.0
20260905030033 59 289 0.0 0.0 0.00 0.11 0.00 94 1017.0
20260905024554 59 289 0.0 0.0 0.00 0.11 0.00 94 1016.9
20260905023030 59 289 0.0 0.0 0.00 0.11 0.00 94 1016.8
20260905021531 59 289 0.0 0.0 0.00 0.11 0.00 94 1016.9
20260905020033 59 289 0.0 0.0 0.00 0.11 0.00 94 1016.8
20260905014527 59 289 0.0 0.0 0.00 0.11 0.00 94 1016.7
20260905013025 60 289 0.0 0.0 0.00 0.11 0.00 94 1016.6
20260905011523 60 289 0.0 0.0 0.00 0.11 0.00 94 1016.6
20260905010023 60 289 0.0 0.0 0.00 0.11 0.00 94 1016.6
20260905004522 60 289 0.0 0.0 0.00 0.11 0.00 94 1016.5
20260905003020 60 289 0.0 0.0 0.00 0.11 0.00 94 1016.4
20260905001520 61 289 0.0 0.0 0.00 0.11 0.00 94 1016.3
20260905000018 61 289 0.0 0.0 0.00 0.11 0.00 94 1016.3
20260904234523 61 289 0.0 0.0 0.00 0.11 0.00 94 1016.1
20260904233015 61 289 0.0 0.0 0.00 0.11 0.00 94 1016.0
20260904231513 62 289 0.0 0.0 0.00 0.11 0.00 94 1016.0
20260904230012 62 289 0.0 0.0 0.00 0.11 0.00 94 1016.0
20260904224510 62 289 0.0 0.0 0.00 0.11 0.00 94 1015.8
20260904223009 62 289 0.0 0.0 0.00 0.11 0.00 94 1015.6
20260904221508 63 289 0.0 0.0 0.00 0.11 0.00 94 1015.6
20260904220006 63 289 0.0 0.0 0.00 0.11 0.11 94 1015.6
20260904214505 63 289 0.0 0.0 0.00 0.11 0.11 94 1015.6
20260904213004 63 289 0.0 0.0 0.00 0.11 0.11 94 1015.3
20260904211504 63 289 0.0 0.0 0.00 0.11 0.11 94 1015.4
20260904210004 63 289 0.0 0.0 0.00 0.11 0.11 94 1015.2
20260904204503 64 289 0.0 0.0 0.00 0.11 0.11 94 1014.7
20260904203007 63 290 0.0 0.0 0.00 0.11 0.11 94 1014.9